Retour au catalogue

STARLINK-37687

ActifCommunicationsVLEO
NORAD 69368·PAYLOAD·🇺🇸 United States

Lancé Jun 4, 2026 depuis Cape Canaveral Space Force Station

Loading…

Prochains Passages (prochaines 24 heures)

TLE

FraisSource: CelesTrak SupGP

Époque: Sep 15, 2026, 03:56 UTC

1 69368C 26123R   26258.16437500  .00012204  00000+0  36058-3 0  2586
2 69368  53.1578 166.5629 0001339  81.6517 219.9782 15.34382503    15

Suivez STARLINK-37687 en temps réel avec AllMySat

Download on the App Store